EWG01A LZIB-EPWA

Flight info

Callsign EWG01A
Flight time N/A
Altitude 23000
Route NIT M985 NIDOK/N0442F350 DCT MEBAN DCT ORTEB/N0441F360 DCT KONZI DCT LOGDA
Aircraft A320/M-SDE3FGHIRWY/LB1

Departure

Time 2026-05-04 18:31
Airport M. R. Štefánik Airport (LZIB)

Arrival

Time N/A
Airport Warsaw Chopin Airport (EPWA)
Time Latitude Longitude Altitude Speed Heading
2026-05-04 17:54 48.16802 17.19936 444 ft 0 kts 317°
2026-05-04 17:56 48.16802 17.19937 444 ft 0 kts 317°
2026-05-04 18:09 48.16802 17.19938 443 ft 0 kts 317°
2026-05-04 18:15 48.16788 17.19958 429 ft 4 kts 315°
2026-05-04 18:15 48.16757 17.19982 430 ft 3 kts 43°
2026-05-04 18:20 48.16756 17.19981 431 ft 0 kts 41°
2026-05-04 18:21 48.16755 17.19978 432 ft 0 kts 36°
2026-05-04 18:22 48.16766 17.19991 430 ft 5 kts 39°
2026-05-04 18:22 48.16781 17.20011 434 ft 5 kts 41°
2026-05-04 18:22 48.16825 17.20069 434 ft 6 kts 44°
2026-05-04 18:22 48.16840 17.20092 436 ft 7 kts 46°
2026-05-04 18:23 48.16883 17.20159 431 ft 0 kts 45°
2026-05-04 18:23 48.16901 17.20186 436 ft 7 kts 44°
2026-05-04 18:23 48.16946 17.20249 435 ft 1 kts 42°
2026-05-04 18:23 48.16968 17.20278 436 ft 8 kts 42°
2026-05-04 18:24 48.17027 17.20361 430 ft 14 kts 44°
2026-05-04 18:24 48.17044 17.20388 435 ft 6 kts 46°
2026-05-04 18:24 48.17071 17.20429 435 ft 2 kts 45°
2026-05-04 18:24 48.17100 17.20472 436 ft 10 kts 45°
2026-05-04 18:25 48.17147 17.20536 426 ft 3 kts 41°
2026-05-04 18:25 48.17183 17.20570 435 ft 10 kts 15°
2026-05-04 18:25 48.17250 17.20531 435 ft 0 kts 318°
2026-05-04 18:25 48.17269 17.20499 437 ft 8 kts 311°
2026-05-04 18:26 48.17288 17.20469 435 ft 5 kts 314°
2026-05-04 18:26 48.17323 17.20415 437 ft 3 kts 314°
2026-05-04 18:26 48.17354 17.20366 434 ft 2 kts 314°
2026-05-04 18:26 48.17382 17.20330 438 ft 9 kts 326°
2026-05-04 18:27 48.17445 17.20303 440 ft 0 kts
2026-05-04 18:27 48.17446 17.20303 440 ft 0 kts
2026-05-04 18:28 48.17450 17.20303 442 ft 3 kts
2026-05-04 18:28 48.17495 17.20323 442 ft 10 kts 28°
2026-05-04 18:29 48.17532 17.20441 437 ft 16 kts 110°
2026-05-04 18:29 48.17508 17.20500 433 ft 0 kts 131°
2026-05-04 18:30 48.17427 17.20632 440 ft 52 kts 133°
2026-05-04 18:30 48.17002 17.21293 438 ft 121 kts 134°
2026-05-04 18:31 48.16293 17.22369 638 ft 156 kts 135°
2026-05-04 18:31 48.15519 17.23511 1365 ft 159 kts 139°
2026-05-04 18:31 48.14724 17.24680 2138 ft 162 kts 140°
2026-05-04 18:31 48.13886 17.25967 2560 ft 184 kts 139°
2026-05-04 18:32 48.12942 17.27440 2902 ft 209 kts 139°
2026-05-04 18:32 48.12030 17.29307 3367 ft 243 kts 115°
2026-05-04 18:32 48.11953 17.31972 4007 ft 274 kts 80°
2026-05-04 18:32 48.12540 17.34757 4701 ft 285 kts 73°
2026-05-04 18:33 48.13259 17.37499 4903 ft 287 kts 70°
2026-05-04 18:33 48.14034 17.40247 4969 ft 286 kts 70°
2026-05-04 18:33 48.14852 17.42990 5659 ft 290 kts 62°
2026-05-04 18:33 48.16086 17.45384 6708 ft 292 kts 49°
2026-05-04 18:34 48.17458 17.47651 7686 ft 295 kts 48°
2026-05-04 18:34 48.18856 17.49931 8634 ft 299 kts 48°
2026-05-04 18:34 48.20275 17.52234 9576 ft 303 kts 48°
2026-05-04 18:34 48.21716 17.54572 10445 ft 307 kts 48°
2026-05-04 18:35 48.23178 17.56946 11276 ft 312 kts 48°
2026-05-04 18:35 48.24658 17.59358 12142 ft 316 kts 48°
2026-05-04 18:35 48.26156 17.61800 12979 ft 320 kts 48°
2026-05-04 18:35 48.27671 17.64278 13827 ft 324 kts 48°
2026-05-04 18:36 48.29200 17.66786 14576 ft 327 kts 48°
2026-05-04 18:36 48.30744 17.69323 15340 ft 330 kts 48°
2026-05-04 18:36 48.32300 17.71883 16099 ft 334 kts 48°
2026-05-04 18:36 48.33871 17.74466 16836 ft 337 kts 47°
2026-05-04 18:37 48.35463 17.77080 17607 ft 340 kts 47°
2026-05-04 18:37 48.37067 17.79718 18335 ft 343 kts 47°
2026-05-04 18:37 48.38136 17.81478 18767 ft 345 kts 47°
2026-05-04 18:37 48.40310 17.85061 19640 ft 348 kts 47°
2026-05-04 18:38 48.41394 17.86850 20081 ft 350 kts 47°
2026-05-04 18:38 48.43038 17.89564 20730 ft 352 kts 47°
2026-05-04 18:38 48.44690 17.92294 21372 ft 354 kts 47°
2026-05-04 18:38 48.46354 17.95048 22015 ft 357 kts 46°
2026-05-04 18:39 48.48039 17.97839 22449 ft 366 kts 46°
2026-05-04 18:39 48.49792 18.00745 22592 ft 383 kts 46°
2026-05-04 18:39 48.51614 18.03771 22824 ft 395 kts 46°
2026-05-04 18:39 48.53474 18.06870 23281 ft 401 kts 46°
2026-05-04 18:40 48.55352 18.10000 23809 ft 404 kts 46°
2026-05-04 18:40 48.57244 18.13155 24279 ft 406 kts 46°
2026-05-04 18:40 48.59146 18.16328 24750 ft 409 kts 46°
2026-05-04 18:40 48.61061 18.19527 25199 ft 412 kts 46°
2026-05-04 18:41 48.62986 18.22751 25657 ft 414 kts 46°
2026-05-04 18:41 48.64921 18.25991 26120 ft 417 kts 46°
2026-05-04 18:41 48.66868 18.29251 26548 ft 419 kts 46°
2026-05-04 18:41 48.68831 18.32540 26993 ft 422 kts 46°
2026-05-04 18:42 48.70802 18.35849 27414 ft 425 kts 46°
2026-05-04 18:42 48.72782 18.39184 27855 ft 427 kts 46°
2026-05-04 18:42 48.74772 18.42547 28276 ft 430 kts 46°
2026-05-04 18:42 48.76771 18.45929 28690 ft 432 kts 46°
2026-05-04 18:43 48.78784 18.49331 29098 ft 435 kts 46°
2026-05-04 18:43 48.80815 18.52759 29504 ft 438 kts 46°
2026-05-04 18:43 48.82856 18.56206 29910 ft 440 kts 46°
2026-05-04 18:43 48.84904 18.59675 30264 ft 443 kts 46°
2026-05-04 18:44 48.86959 18.63167 30594 ft 445 kts 46°
2026-05-04 18:44 48.88328 18.65498 30801 ft 446 kts 46°
2026-05-04 18:44 48.91095 18.70219 31233 ft 449 kts 46°
2026-05-04 18:44 48.93173 18.73772 31547 ft 451 kts 46°
2026-05-04 18:45 48.95258 18.77344 31850 ft 453 kts 46°
2026-05-04 18:45 48.97357 18.80935 32197 ft 453 kts 46°
2026-05-04 18:45 48.99451 18.84516 32632 ft 452 kts 46°
2026-05-04 18:45 49.01510 18.88041 33060 ft 451 kts 46°
2026-05-04 18:46 49.03592 18.91613 33480 ft 450 kts 46°
2026-05-04 18:46 49.05670 18.95184 33912 ft 449 kts 46°
2026-05-04 18:46 49.07950 18.98388 34277 ft 445 kts 32°
2026-05-04 18:46 49.10645 19.00667 34610 ft 442 kts 24°
2026-05-04 18:47 49.13417 19.02707 34924 ft 443 kts 24°
2026-05-04 18:47 49.16196 19.04752 35027 ft 445 kts 24°
2026-05-04 18:47 49.19008 19.06822 35047 ft 453 kts 24°
2026-05-04 18:48 49.24781 19.11087 35045 ft 466 kts 24°
2026-05-04 18:48 49.30646 19.15442 35039 ft 469 kts 24°
2026-05-04 18:49 49.36522 19.19825 35039 ft 470 kts 24°
2026-05-04 18:49 49.42406 19.24223 35035 ft 470 kts 24°
2026-05-04 18:50 49.48290 19.28623 35031 ft 470 kts 24°
2026-05-04 18:50 49.54169 19.33025 35032 ft 470 kts 24°
2026-05-04 18:51 49.60060 19.37444 35032 ft 471 kts 24°
2026-05-04 18:51 49.65948 19.41875 35033 ft 471 kts 24°
2026-05-04 18:52 49.71839 19.46328 35031 ft 471 kts 24°
2026-05-04 18:52 49.77724 19.50800 35021 ft 471 kts 24°
2026-05-04 18:53 49.83622 19.55208 35012 ft 470 kts 22°
2026-05-04 18:53 49.89655 19.59136 35003 ft 470 kts 21°
2026-05-04 18:54 49.95625 19.63324 35000 ft 471 kts 24°
2026-05-04 18:54 50.01488 19.67881 34992 ft 471 kts 25°
2026-05-04 18:55 50.07320 19.72557 34897 ft 469 kts 25°
2026-05-04 18:55 50.13086 19.77093 33700 ft 460 kts 24°
2026-05-04 18:55 50.15938 19.79312 33059 ft 455 kts 24°
2026-05-04 18:56 50.18757 19.81501 32433 ft 451 kts 24°
2026-05-04 18:56 50.21552 19.83674 31813 ft 446 kts 24°
2026-05-04 18:56 50.24316 19.85833 31212 ft 442 kts 25°
2026-05-04 18:56 50.27056 19.87980 30615 ft 438 kts 25°
2026-05-04 18:57 50.29766 19.90105 30042 ft 434 kts 25°
2026-05-04 18:57 50.32454 19.92212 29392 ft 430 kts 25°
2026-05-04 18:57 50.35116 19.94298 29013 ft 428 kts 25°
2026-05-04 18:57 50.37778 19.96390 28963 ft 428 kts 25°